******************************************************************************* JPL/HORIZONS 120P/Mueller 1 2025-Dec-12 17:59:50 Rec #:90001017 (+COV) Soln.date: 2022-Feb-14_01:12:50 # obs: 147 (1987-2021) IAU76/J2000 helio. ecliptic osc. elements (au, days, deg., period=Julian yrs): EPOCH= 2454349.5 ! 2007-Sep-06.0000000 (TDB) RMSW= n.a. EC= .3365387805794772 QR= 2.743862527603342 TP= 2453277.9369652006 OM= 4.442766953653403 W= 30.00802529800133 IN= 8.79119538756936 A= 4.135678841937248 MA= 125.5745378069615 ADIST= 5.527495156271154 PER= 8.410627742143101 N= .117188195 ANGMOM= .032942261 DAN= 2.83971 DDN= 5.17559 L= 34.15842 B= 4.3837086 MOID= 1.75355005 TP= 2004-Sep-29.4369652006 Comet physical (GM= km^3/s^2; RAD= km): GM= n.a. RAD= 1.5 M1= 6.6 M2= 16.4 k1= 26.25 k2= 5. PHCOF= .030 Comet non-gravitational force model (AMRAT=m^2/kg;A1-A3=au/d^2;DT=days;R0=au): AMRAT= 0. DT= 0. A1= -2.571604013443E-8 A2= -1.612974405289E-9 A3= 0. Standard model: ALN= .1112620426 NK= 4.6142 NM= 2.15 NN= 5.093 R0= 2.808 COMET comments 1: soln ref.= JPL#25, data arc: 1987-10-18 to 2021-12-09 2: k1=26.25, k2=5., phase coef.=0.03; ******************************************************************************* ******************************************************************************* Ephemeris / WWW_USER Fri Dec 12 17:59:50 2025 Pasadena, USA / Horizons ******************************************************************************* Target body name: 120P/Mueller 1 {source: JPL#25} Center body name: Earth (399) {source: DE441} Center-site name: GEOCENTRIC ******************************************************************************* Start time : A.D. 2029-Mar-27 00:00:00.0000 UT Stop time : A.D. 2029-Apr-15 00:00:00.0000 UT Step-size : 180 minutes ******************************************************************************* Target pole/equ : undefined Target radii : 1.5 km Center geodetic : 0.0, 0.0, -6378.137 {E-lon(deg),Lat(deg),Alt(km)} Center cylindric: 0.0, 0.0, 0.0 {E-lon(deg),Dxy(km),Dz(km)} Center pole/equ : ITRF93 {East-longitude positive} Center radii : 6378.137, 6378.137, 6356.752 km {Equator_a, b, pole_c} Target primary : Sun Vis. interferer : MOON (R_eq= 1737.400) km {source: DE441} Rel. light bend : Sun {source: DE441} Rel. lght bnd GM: 1.3271E+11 km^3/s^2 Small-body perts: Yes {source: SB441-N16} Atmos refraction: NO (AIRLESS) RA format : HMS Time format : CAL Calendar mode : Mixed Julian/Gregorian EOP file : eop.251212.p260310 EOP coverage : DATA-BASED 1962-JAN-20 TO 2025-DEC-12. PREDICTS-> 2026-MAR-09 Units conversion: 1 au= 149597870.700 km, c= 299792.458 km/s, 1 day= 86400.0 s Table cut-offs 1: Elevation (-90.0deg=NO ),Airmass (>38.000=NO), Daylight (NO ) Table cut-offs 2: Solar elongation ( 0.0,180.0=NO ),Local Hour Angle( 0.0=NO ) Table cut-offs 3: RA/DEC angular rate ( 0.0=NO ) ******************************************************************************* Initial IAU76/J2000 heliocentric ecliptic osculating elements (au, days, deg.): EPOCH= 2454349.5 ! 2007-Sep-06.0000000 (TDB) RMSW= n.a. EC= .3365387805794772 QR= 2.743862527603342 TP= 2453277.9369652006 OM= 4.442766953653403 W= 30.00802529800133 IN= 8.79119538756936 Equivalent ICRF heliocentric cartesian coordinates (au, au/d): X=-5.160430970262215E+00 Y=-3.699589528748732E-01 Z=-1.608082533628430E-01 VX=-1.015817338503113E-03 VY=-5.473961376780226E-03 VZ=-3.433521538197637E-03 Comet physical (GM= km^3/s^2; RAD= km): GM= n.a. RAD= 1.5 M1= 6.6 M2= 16.4 k1= 26.25 k2= 5. PHCOF= .030 Comet non-gravitational force model (AMRAT=m^2/kg;A1-A3=au/d^2;DT=days;R0=au): AMRAT= 0. DT= 0. A1= -2.571604013443E-8 A2= -1.612974405289E-9 A3= 0. Standard model: ALN= .1112620426 NK= 4.6142 NM= 2.15 NN= 5.093 R0= 2.808 ******************************************************************************* Date__(UT)__HR:MN r rdot ************************************************** $$SOE 2029-Mar-27 00:00 2.492069697757 -0.2903543 2029-Mar-27 03:00 2.492048875328 -0.2865090 2029-Mar-27 06:00 2.492028330499 -0.2826636 2029-Mar-27 09:00 2.492008063284 -0.2788180 2029-Mar-27 12:00 2.491988073694 -0.2749722 2029-Mar-27 15:00 2.491968361744 -0.2711263 2029-Mar-27 18:00 2.491948927444 -0.2672802 2029-Mar-27 21:00 2.491929770808 -0.2634339 2029-Mar-28 00:00 2.491910891847 -0.2595874 2029-Mar-28 03:00 2.491892290574 -0.2557408 2029-Mar-28 06:00 2.491873967000 -0.2518941 2029-Mar-28 09:00 2.491855921136 -0.2480471 2029-Mar-28 12:00 2.491838152995 -0.2442000 2029-Mar-28 15:00 2.491820662587 -0.2403528 2029-Mar-28 18:00 2.491803449923 -0.2365054 2029-Mar-28 21:00 2.491786515014 -0.2326579 2029-Mar-29 00:00 2.491769857871 -0.2288102 2029-Mar-29 03:00 2.491753478504 -0.2249623 2029-Mar-29 06:00 2.491737376924 -0.2211144 2029-Mar-29 09:00 2.491721553141 -0.2172663 2029-Mar-29 12:00 2.491706007165 -0.2134180 2029-Mar-29 15:00 2.491690739005 -0.2095696 2029-Mar-29 18:00 2.491675748672 -0.2057211 2029-Mar-29 21:00 2.491661036174 -0.2018725 2029-Mar-30 00:00 2.491646601521 -0.1980237 2029-Mar-30 03:00 2.491632444722 -0.1941748 2029-Mar-30 06:00 2.491618565786 -0.1903258 2029-Mar-30 09:00 2.491604964722 -0.1864767 2029-Mar-30 12:00 2.491591641538 -0.1826274 2029-Mar-30 15:00 2.491578596243 -0.1787780 2029-Mar-30 18:00 2.491565828845 -0.1749286 2029-Mar-30 21:00 2.491553339352 -0.1710790 2029-Mar-31 00:00 2.491541127772 -0.1672293 2029-Mar-31 03:00 2.491529194112 -0.1633795 2029-Mar-31 06:00 2.491517538380 -0.1595296 2029-Mar-31 09:00 2.491506160584 -0.1556796 2029-Mar-31 12:00 2.491495060731 -0.1518294 2029-Mar-31 15:00 2.491484238827 -0.1479793 2029-Mar-31 18:00 2.491473694880 -0.1441290 2029-Mar-31 21:00 2.491463428896 -0.1402786 2029-Apr-01 00:00 2.491453440882 -0.1364281 2029-Apr-01 03:00 2.491443730843 -0.1325776 2029-Apr-01 06:00 2.491434298787 -0.1287269 2029-Apr-01 09:00 2.491425144718 -0.1248762 2029-Apr-01 12:00 2.491416268644 -0.1210254 2029-Apr-01 15:00 2.491407670568 -0.1171745 2029-Apr-01 18:00 2.491399350498 -0.1133236 2029-Apr-01 21:00 2.491391308438 -0.1094726 2029-Apr-02 00:00 2.491383544392 -0.1056215 2029-Apr-02 03:00 2.491376058367 -0.1017703 2029-Apr-02 06:00 2.491368850367 -0.0979191 2029-Apr-02 09:00 2.491361920396 -0.0940678 2029-Apr-02 12:00 2.491355268459 -0.0902165 2029-Apr-02 15:00 2.491348894560 -0.0863651 2029-Apr-02 18:00 2.491342798702 -0.0825136 2029-Apr-02 21:00 2.491336980891 -0.0786621 2029-Apr-03 00:00 2.491331441129 -0.0748106 2029-Apr-03 03:00 2.491326179420 -0.0709590 2029-Apr-03 06:00 2.491321195768 -0.0671073 2029-Apr-03 09:00 2.491316490174 -0.0632557 2029-Apr-03 12:00 2.491312062644 -0.0594039 2029-Apr-03 15:00 2.491307913179 -0.0555522 2029-Apr-03 18:00 2.491304041781 -0.0517004 2029-Apr-03 21:00 2.491300448455 -0.0478486 2029-Apr-04 00:00 2.491297133200 -0.0439967 2029-Apr-04 03:00 2.491294096021 -0.0401448 2029-Apr-04 06:00 2.491291336919 -0.0362929 2029-Apr-04 09:00 2.491288855894 -0.0324410 2029-Apr-04 12:00 2.491286652950 -0.0285890 2029-Apr-04 15:00 2.491284728088 -0.0247370 2029-Apr-04 18:00 2.491283081308 -0.0208851 2029-Apr-04 21:00 2.491281712612 -0.0170331 2029-Apr-05 00:00 2.491280622001 -0.0131810 2029-Apr-05 03:00 2.491279809475 -0.0093290 2029-Apr-05 06:00 2.491279275035 -0.0054770 2029-Apr-05 09:00 2.491279018682 -0.0016250 2029-Apr-05 12:00 2.491279040415 0.0022271 2029-Apr-05 15:00 2.491279340234 0.0060791 2029-Apr-05 18:00 2.491279918140 0.0099311 2029-Apr-05 21:00 2.491280774132 0.0137831 2029-Apr-06 00:00 2.491281908209 0.0176351 2029-Apr-06 03:00 2.491283320372 0.0214871 2029-Apr-06 06:00 2.491285010618 0.0253391 2029-Apr-06 09:00 2.491286978947 0.0291911 2029-Apr-06 12:00 2.491289225358 0.0330430 2029-Apr-06 15:00 2.491291749850 0.0368950 2029-Apr-06 18:00 2.491294552420 0.0407469 2029-Apr-06 21:00 2.491297633067 0.0445987 2029-Apr-07 00:00 2.491300991790 0.0484506 2029-Apr-07 03:00 2.491304628585 0.0523024 2029-Apr-07 06:00 2.491308543452 0.0561542 2029-Apr-07 09:00 2.491312736387 0.0600060 2029-Apr-07 12:00 2.491317207388 0.0638577 2029-Apr-07 15:00 2.491321956452 0.0677094 2029-Apr-07 18:00 2.491326983576 0.0715610 2029-Apr-07 21:00 2.491332288757 0.0754126 2029-Apr-08 00:00 2.491337871991 0.0792641 2029-Apr-08 03:00 2.491343733276 0.0831156 2029-Apr-08 06:00 2.491349872608 0.0869670 2029-Apr-08 09:00 2.491356289982 0.0908184 2029-Apr-08 12:00 2.491362985395 0.0946698 2029-Apr-08 15:00 2.491369958842 0.0985210 2029-Apr-08 18:00 2.491377210320 0.1023722 2029-Apr-08 21:00 2.491384739824 0.1062234 2029-Apr-09 00:00 2.491392547348 0.1100744 2029-Apr-09 03:00 2.491400632889 0.1139255 2029-Apr-09 06:00 2.491408996440 0.1177764 2029-Apr-09 09:00 2.491417637998 0.1216272 2029-Apr-09 12:00 2.491426557556 0.1254780 2029-Apr-09 15:00 2.491435755109 0.1293287 2029-Apr-09 18:00 2.491445230651 0.1331794 2029-Apr-09 21:00 2.491454984176 0.1370299 2029-Apr-10 00:00 2.491465015678 0.1408803 2029-Apr-10 03:00 2.491475325151 0.1447307 2029-Apr-10 06:00 2.491485912589 0.1485810 2029-Apr-10 09:00 2.491496777984 0.1524312 2029-Apr-10 12:00 2.491507921330 0.1562812 2029-Apr-10 15:00 2.491519342620 0.1601312 2029-Apr-10 18:00 2.491531041847 0.1639811 2029-Apr-10 21:00 2.491543019004 0.1678309 2029-Apr-11 00:00 2.491555274082 0.1716806 2029-Apr-11 03:00 2.491567807075 0.1755301 2029-Apr-11 06:00 2.491580617975 0.1793796 2029-Apr-11 09:00 2.491593706773 0.1832289 2029-Apr-11 12:00 2.491607073461 0.1870782 2029-Apr-11 15:00 2.491620718031 0.1909273 2029-Apr-11 18:00 2.491634640474 0.1947763 2029-Apr-11 21:00 2.491648840782 0.1986251 2029-Apr-12 00:00 2.491663318946 0.2024739 2029-Apr-12 03:00 2.491678074956 0.2063225 2029-Apr-12 06:00 2.491693108804 0.2101710 2029-Apr-12 09:00 2.491708420479 0.2140193 2029-Apr-12 12:00 2.491724009973 0.2178676 2029-Apr-12 15:00 2.491739877276 0.2217156 2029-Apr-12 18:00 2.491756022377 0.2255636 2029-Apr-12 21:00 2.491772445266 0.2294114 2029-Apr-13 00:00 2.491789145934 0.2332590 2029-Apr-13 03:00 2.491806124369 0.2371066 2029-Apr-13 06:00 2.491823380561 0.2409539 2029-Apr-13 09:00 2.491840914500 0.2448011 2029-Apr-13 12:00 2.491858726173 0.2486482 2029-Apr-13 15:00 2.491876815571 0.2524951 2029-Apr-13 18:00 2.491895182681 0.2563418 2029-Apr-13 21:00 2.491913827493 0.2601884 2029-Apr-14 00:00 2.491932749993 0.2640348 2029-Apr-14 03:00 2.491951950171 0.2678810 2029-Apr-14 06:00 2.491971428015 0.2717271 2029-Apr-14 09:00 2.491991183512 0.2755730 2029-Apr-14 12:00 2.492011216649 0.2794188 2029-Apr-14 15:00 2.492031527415 0.2832643 2029-Apr-14 18:00 2.492052115796 0.2871097 2029-Apr-14 21:00 2.492072981779 0.2909549 2029-Apr-15 00:00 2.492094125352 0.2947999 $$EOE ******************************************************************************* Column meaning: TIME Times PRIOR to 1962 are UT1, a mean-solar time closely related to the prior but now-deprecated GMT. Times AFTER 1962 are in UTC, the current civil or "wall-clock" time-scale. UTC is kept within 0.9 seconds of UT1 using integer leap-seconds for 1972 and later years. Conversion from the internal Barycentric Dynamical Time (TDB) of solar system dynamics to the non-uniform civil UT time-scale requested for output has not been determined for UTC times after the next July or January 1st. Therefore, the last known leap-second is used as a constant over future intervals. Time tags refer to the UT time-scale conversion from TDB on Earth regardless of observer location within the solar system, although clock rates may differ due to the local gravity field and no analog to "UT" may be defined for that location. Any 'b' symbol in the 1st-column denotes a B.C. date. First-column blank (" ") denotes an A.D. date. CALENDAR SYSTEM Mixed calendar mode was active such that calendar dates after AD 1582-Oct-15 (if any) are in the modern Gregorian system. Dates prior to 1582-Oct-5 (if any) are in the Julian calendar system, which is automatically extended for dates prior to its adoption on 45-Jan-1 BC. The Julian calendar is useful for matching historical dates. The Gregorian calendar more accurately corresponds to the Earth's orbital motion and seasons. A "Gregorian-only" calendar mode is available if such physical events are the primary interest. NOTE: "n.a." in output means quantity "not available" at the print-time. 'r rdot' = The Sun's apparent range ("r", light-time aberrated) and range-rate ("rdot") relative to the target center, as seen by the observer. A positive "rdot" means the target center was moving away from the Sun, negative means moving toward the Sun. Units: AU and KM/S Computations by ... Solar System Dynamics Group, Horizons On-Line Ephemeris System 4800 Oak Grove Drive, Jet Propulsion Laboratory Pasadena, CA 91109 USA General site: https://ssd.jpl.nasa.gov/ Mailing list: https://ssd.jpl.nasa.gov/email_list.html System news : https://ssd.jpl.nasa.gov/horizons/news.html User Guide : https://ssd.jpl.nasa.gov/horizons/manual.html Connect : browser https://ssd.jpl.nasa.gov/horizons/app.html#/x API https://ssd-api.jpl.nasa.gov/doc/horizons.html command-line telnet ssd.jpl.nasa.gov 6775 e-mail/batch https://ssd.jpl.nasa.gov/ftp/ssd/horizons_batch.txt scripts https://ssd.jpl.nasa.gov/ftp/ssd/SCRIPTS Author : Jon.D.Giorgini@jpl.nasa.gov ******************************************************************************* !$$SOF COMMAND = '120P' QUANTITIES = '19' START_TIME = '2029-03-27' STEP_SIZE = '3 hours' STOP_TIME = '2029-04-15'